Regional Weather Roundup
Issued by NWS

Home | Current Version | Previous Version | Graphics & Text | Print | Product List | Glossary Off
Versions: 1 2 3 4 5 6 7 8 9 10 11 12 13 14 15 16 17 18 19 20 21 22 23 24 25 26 27 28 29 30 31 32 33 34 35 36 37 38 39 40 41 42 43 44 45 46 47 48 49 50

139
ASUS43 KDMX 281708
RWRIA

WEATHER ROUNDUP FOR IOWA
NATIONAL WEATHER SERVICE DES MOINES IA
1200 PM CDT WED SEP 28 2016

NOTE: "FAIR" INDICATES FEW OR NO CLOUDS BELOW 12,000 FEET WITH NO
SIGNIFICANT WEATHER AND/OR OBSTRUCTIONS TO VISIBILITY.

* - THESE STATIONS ARE NOT NWS STATIONS...THUS NOT UNDER NWS
QUALITY CONTROL.  THEY ALSO DO NOT REPORT WEATHER SUCH
AS PRECIPITATION OR FOG.

IAZ001>003-012>014-020>022-031>034-043>046-281800-
   NORTHWEST IOWA

CITY           SKY/WX    TMP DP  RH WIND       PRES   REMARKS
CARROLL *      CLOUDY    57  46  67 N15G22    30.17R
CHEROKEE *     CLOUDY    52  47  83 N8        30.22R
DENISON *      CLOUDY    54  46  76 N12       30.18R
LE MARS *      CLOUDY    54  46  76 N9        30.24R
ORANGE CITY *  CLOUDY    52  46  82 NE8       30.23R
SHELDON *      CLOUDY    50  46  87 VRB6G13   30.21S
SIOUX CITY     MOSUNNY   57  47  69 N7        30.23R
SPENCER        CLOUDY    55  47  74 N10       30.20R
STORM LAKE *   CLOUDY    54  46  76 N10G17    30.19S
$$

IAZ055>058-069>071-079>083-090>094-281800-
   SOUTHWEST IOWA

CITY           SKY/WX    TMP DP  RH WIND       PRES   REMARKS
ATLANTIC *     CLOUDY    54  46  76 N14G22    30.17R
AUDUBON *      CLOUDY    54  46  76 N10G18    30.18S
CLARINDA *       N/A     59  46  63 MISG      30.17S
COUNCIL BLFS * MOSUNNY   55  46  71 N13       30.18S
CRESTON *      CLOUDY    55  46  71 N17       30.15R
HARLAN  *      CLOUDY    54  46  76 N12G18    30.22R
LAMONI         PTSUNNY   60  48  64 N13       30.11R
RED OAK *      MOSUNNY   59  46  63 N18       30.17S
SHENANDOAH *   MOSUNNY   61  46  59 N12G18    30.17S
$$

IAZ047>049-059>061-072>074-084-281800-
   CENTRAL IOWA

CITY           SKY/WX    TMP DP  RH WIND       PRES   REMARKS
AMES           CLOUDY    57  49  74 N17       30.12R
ANKENY *         N/A    N/A N/A N/A MISG        N/A
BOONE *        CLOUDY    55  48  76 N18       30.12R
CHARITON *       N/A     57  46  67 NW13G20   30.10R
DES MOINES     CLOUDY    58  47  66 NW13      30.12R
GRINNELL*      CLOUDY    59  47  63 N12G20    30.08R
KNOXVILLE *    CLOUDY    57  46  67 NW14G21   30.08R
MARSHALLTOWN   CLOUDY    59  48  67 N16G24    30.08R
NEWTON *       CLOUDY    59  46  63 N18       30.07S
PELLA *        CLOUDY    59  47  63 N9        30.09R
PERRY *        CLOUDY    57  48  70 N13G21    30.15R
$$

IAZ004>006-015-016-023>025-035-036-281800-
   NORTH CENTRAL IOWA

CITY           SKY/WX    TMP DP  RH WIND       PRES   REMARKS
ALGONA *       CLOUDY    55  48  76 N16       30.16R
CLARION *      CLOUDY    57  48  72 N13G23    30.13R
ESTHERVILLE    PTSUNNY   57  48  72 N15G23    30.18R
FORT DODGE *   CLOUDY    55  46  71 N10       30.16S
MASON CITY     CLOUDY    57  48  72 N16G23    30.13R
FOREST CITY *  CLOUDY    55  46  71 N12G23    30.14R
WEBSTER CITY * CLOUDY    57  48  72 N17G23    30.11S
IOWA FALLS *   CLOUDY    59  47  65 N14G23    30.11R
$$

IAZ007>011-017>019-026>030-037>042-050>054-066-281800-
   NORTHEAST IOWA

CITY           SKY/WX    TMP DP  RH WIND       PRES   REMARKS
CEDAR RAPIDS   CLOUDY    57  50  77 N16       30.03R
CLINTON *      CLOUDY    58  49  72 N14       29.99S
DECORAH *      CLOUDY    55  52  88 N9        30.05R
DUBUQUE        CLOUDY    58  51  78 N15       30.01R
MONTICELLO *   PTSUNNY   59  50  72 N14       30.01S
OELWEIN *      CLOUDY    57  48  72 N18G24    30.06R
WATERLOO       CLOUDY    59  48  67 N17G25    30.06R
$$

IAZ064-065-067-068-078-281800-
   EAST CENTRAL IOWA

CITY           SKY/WX    TMP DP  RH WIND       PRES   REMARKS
DAVENPORT      CLOUDY    57  48  72 N13       30.00R
IOWA CITY      CLOUDY    57  48  72 N8        30.05R
MT. PLEASANT * CLOUDY    60  48  65 N15       30.04R
MUSCATINE *    CLOUDY    59  46  63 N12G21    30.02S
QUAD CITIES    CLOUDY    58  48  69 NW17      29.99R
$$

IAZ062-063-075>077-085>089-095>099-281800-
   SOUTHEAST IOWA

CITY           SKY/WX    TMP DP  RH WIND       PRES   REMARKS
BURLINGTON     CLOUDY    57  47  69 N14       30.02R
FAIRFIELD *    CLOUDY    59  45  58 N16G23    30.04S
FORT MADISON * CLOUDY    57  46  67 N12G17    30.03S
KEOKUK *       CLOUDY    57  45  62 N14G20    30.02S
OSKALOOSA *    CLOUDY    58  46  63 N12G17    30.07R
OTTUMWA        CLOUDY    58  45  62 N17G23    30.07R
WASHINGTON *     N/A    N/A N/A N/A MISG        N/A
$$

ABBREVIATIONS USED IN REMARKS
   TC - TEMPERATURES IN CELSIUS
  WCI - WIND CHILL INDEX
   HX - HEAT INDEX
  VSB - VISIBILITY
$$





USA.gov is the U.S. government's official web portal to all federal, state and local government web resources and services.